Time,TemperatureF,DewpointF,PressureIn,WindDirection,WindDirectionDegrees,WindSpeedMPH,WindSpeedGustMPH,Humidity,HourlyPrecipIn,Conditions,Clouds,dailyrainin,SoftwareType,DateUTC
2013-05-02 00:03:00,66.0,61.0,30.19,SSW,194,0.0,0.0,83,0.03,,,-99.99,,2013-05-02 04:03:00,
2013-05-02 00:12:00,66.0,61.0,30.19,SSW,194,0.0,0.0,83,0.03,,,-99.99,,2013-05-02 04:12:00,
2013-05-02 00:23:00,65.0,60.0,30.19,SSW,194,0.0,0.0,83,0.03,,,-99.99,,2013-05-02 04:23:00,
2013-05-02 00:33:00,65.0,60.0,30.18,SSW,194,0.0,0.0,83,0.03,,,-99.99,,2013-05-02 04:33:00,
2013-05-02 00:43:00,65.0,60.0,30.18,SSW,194,0.0,0.0,83,0.03,,,-99.99,,2013-05-02 04:43:00,
2013-05-02 00:52:00,64.0,60.0,30.18,SSW,194,0.0,0.0,86,0.03,,,-99.99,,2013-05-02 04:52:00,
2013-05-02 01:02:00,63.0,60.0,30.18,SSW,194,0.0,0.0,89,0.03,,,-99.99,,2013-05-02 05:02:00,
2013-05-02 01:12:00,63.0,60.0,30.18,SSW,194,0.0,0.0,89,0.03,,,-99.99,,2013-05-02 05:12:00,
2013-05-02 01:22:00,63.0,60.0,30.18,SSW,194,0.0,0.0,90,0.03,,,-99.99,,2013-05-02 05:22:00,
2013-05-02 01:32:00,63.0,60.0,30.18,SSW,194,0.0,0.0,90,0.03,,,-99.99,,2013-05-02 05:32:00,
2013-05-02 01:42:00,63.0,60.0,30.18,SSW,194,0.0,0.0,90,0.03,,,-99.99,,2013-05-02 05:42:00,
2013-05-02 01:52:00,63.0,59.0,30.18,SSW,194,0.0,0.0,88,0.03,,,-99.99,,2013-05-02 05:52:00,
2013-05-02 02:01:00,63.0,60.0,30.18,SSW,194,0.0,0.0,89,0.03,,,-99.99,,2013-05-02 06:01:00,
2013-05-02 02:12:00,63.0,60.0,30.18,SSW,194,0.0,0.0,89,0.03,,,-99.99,,2013-05-02 06:12:00,
2013-05-02 02:22:00,63.0,60.0,30.18,SSW,194,0.0,0.0,89,0.03,,,-99.99,,2013-05-02 06:22:00,
2013-05-02 02:32:00,64.0,60.0,30.17,SSW,194,0.0,0.0,87,0.03,,,-99.99,,2013-05-02 06:32:00,
2013-05-02 02:42:00,64.0,60.0,30.17,SSW,194,0.0,0.0,87,0.03,,,-99.99,,2013-05-02 06:42:00,
2013-05-02 02:52:00,65.0,59.0,30.17,SSW,194,0.0,0.0,82,0.03,,,-99.99,,2013-05-02 06:52:00,
2013-05-02 03:02:00,65.0,59.0,30.17,SSW,194,0.0,0.0,82,0.03,,,-99.99,,2013-05-02 07:02:00,
2013-05-02 03:11:00,65.0,59.0,30.17,SSW,194,0.0,0.0,82,0.03,,,-99.99,,2013-05-02 07:11:00,
2013-05-02 03:21:00,64.0,59.0,30.17,SSW,194,0.0,0.0,83,0.03,,,-99.99,,2013-05-02 07:21:00,
2013-05-02 03:32:00,65.0,60.0,30.17,SSW,194,0.0,0.0,83,0.03,,,-99.99,,2013-05-02 07:32:00,
2013-05-02 03:42:00,65.0,60.0,30.17,SSW,194,0.0,0.0,83,0.03,,,-99.99,,2013-05-02 07:42:00,
2013-05-02 03:52:00,64.0,59.0,30.17,SSW,194,0.0,0.0,84,0.03,,,-99.99,,2013-05-02 07:52:00,
2013-05-02 04:02:00,64.0,59.0,30.17,SSW,194,0.0,0.0,84,0.03,,,-99.99,,2013-05-02 08:02:00,
2013-05-02 04:11:00,64.0,59.0,30.17,SSW,194,0.0,0.0,84,0.03,,,-99.99,,2013-05-02 08:11:00,
2013-05-02 04:22:00,64.0,59.0,30.17,SSW,194,0.0,0.0,85,0.03,,,-99.99,,2013-05-02 08:22:00,
2013-05-02 04:32:00,64.0,60.0,30.17,SSW,194,0.0,0.0,86,0.03,,,-99.99,,2013-05-02 08:32:00,
2013-05-02 04:42:00,64.0,60.0,30.17,SSW,194,0.0,0.0,86,0.03,,,-99.99,,2013-05-02 08:42:00,
2013-05-02 04:52:00,64.0,60.0,30.17,SSW,194,0.0,0.0,86,0.03,,,-99.99,,2013-05-02 08:52:00,
2013-05-02 05:02:00,63.0,59.0,30.17,SSW,194,0.0,0.0,87,0.03,,,-99.99,,2013-05-02 09:02:00,
2013-05-02 05:12:00,63.0,59.0,30.17,SSW,194,0.0,0.0,87,0.03,,,-99.99,,2013-05-02 09:12:00,
2013-05-02 05:21:00,63.0,59.0,30.17,SSW,194,0.0,0.0,88,0.03,,,-99.99,,2013-05-02 09:21:00,
2013-05-02 05:33:00,63.0,59.0,30.17,SSW,194,0.0,0.0,88,0.03,,,-99.99,,2013-05-02 09:33:00,
2013-05-02 05:42:00,63.0,59.0,30.17,SSW,194,0.0,0.0,88,0.03,,,-99.99,,2013-05-02 09:42:00,
2013-05-02 05:52:00,63.0,60.0,30.17,SSW,194,0.0,0.0,89,0.03,,,-99.99,,2013-05-02 09:52:00,
2013-05-02 06:03:00,63.0,60.0,30.17,SSW,194,0.0,0.0,89,0.03,,,-99.99,,2013-05-02 10:03:00,
2013-05-02 06:12:00,63.0,60.0,30.17,SSW,194,0.0,0.0,89,0.03,,,-99.99,,2013-05-02 10:12:00,
2013-05-02 06:23:00,63.0,59.0,30.17,SSW,194,0.0,0.0,88,0.03,,,-99.99,,2013-05-02 10:23:00,
2013-05-02 06:33:00,62.0,58.0,30.17,SSW,194,0.0,0.0,88,0.03,,,-99.99,,2013-05-02 10:33:00,
2013-05-02 06:42:00,62.0,58.0,30.17,SSW,194,0.0,0.0,88,0.03,,,-99.99,,2013-05-02 10:42:00,
2013-05-02 06:53:00,62.0,59.0,30.17,SSW,194,0.0,0.0,90,0.03,,,-99.99,,2013-05-02 10:53:00,
2013-05-02 07:02:00,62.0,59.0,30.18,SSW,194,0.0,0.0,90,0.03,,,-99.99,,2013-05-02 11:02:00,
2013-05-02 07:12:00,62.0,59.0,30.18,SSW,194,0.0,0.0,90,0.03,,,-99.99,,2013-05-02 11:12:00,
2013-05-02 07:22:00,62.0,59.0,30.18,SSW,194,0.0,0.0,90,0.03,,,-99.99,,2013-05-02 11:22:00,
2013-05-02 07:32:00,62.0,59.0,30.18,SSW,194,0.0,0.0,90,0.03,,,-99.99,,2013-05-02 11:32:00,
2013-05-02 07:42:00,62.0,59.0,30.18,SSW,194,0.0,0.0,90,0.03,,,-99.99,,2013-05-02 11:42:00,
2013-05-02 07:52:00,62.0,59.0,30.18,SSW,194,0.0,0.0,90,0.03,,,-99.99,,2013-05-02 11:52:00,
2013-05-02 08:01:00,62.0,59.0,30.19,SSW,194,0.0,0.0,90,0.03,,,-99.99,,2013-05-02 12:01:00,
2013-05-02 08:12:00,62.0,59.0,30.19,SSW,194,0.0,0.0,90,0.03,,,-99.99,,2013-05-02 12:12:00,
2013-05-02 08:22:00,62.0,59.0,30.19,SSW,194,0.0,0.0,90,0.03,,,-99.99,,2013-05-02 12:22:00,
2013-05-02 08:32:00,64.0,60.0,30.19,South,170,6.0,0.0,87,0.03,,,-99.99,,2013-05-02 12:32:00,
2013-05-02 08:42:00,64.0,60.0,30.19,South,170,6.0,0.0,87,0.03,,,-99.99,,2013-05-02 12:42:00,
2013-05-02 08:52:00,64.0,60.0,30.20,SSE,148,5.0,0.0,86,0.03,,,-99.99,,2013-05-02 12:52:00,
2013-05-02 09:01:00,65.0,59.0,30.20,SSE,167,8.0,0.0,80,0.03,,,-99.99,,2013-05-02 13:01:00,
2013-05-02 09:11:00,65.0,59.0,30.20,SSE,167,8.0,0.0,80,0.03,,,-99.99,,2013-05-02 13:11:00,
2013-05-02 09:22:00,67.0,59.0,30.20,South,176,11.0,0.0,76,0.03,,,-99.99,,2013-05-02 13:22:00,
2013-05-02 09:32:00,68.0,59.0,30.20,SSE,160,7.0,0.0,73,0.03,,,-99.99,,2013-05-02 13:32:00,
2013-05-02 09:42:00,68.0,59.0,30.20,SSE,160,7.0,0.0,73,0.03,,,-99.99,,2013-05-02 13:42:00,
2013-05-02 09:52:00,68.0,58.0,30.20,South,183,8.0,0.0,70,0.03,,,-99.99,,2013-05-02 13:52:00,
2013-05-02 10:02:00,70.0,59.0,30.20,South,188,7.0,0.0,68,0.03,,,-99.99,,2013-05-02 14:02:00,
2013-05-02 10:11:00,70.0,59.0,30.20,South,188,7.0,0.0,68,0.03,,,-99.99,,2013-05-02 14:11:00,
2013-05-02 10:22:00,70.0,57.0,30.20,South,191,8.0,0.0,64,0.03,,,-99.99,,2013-05-02 14:22:00,
2013-05-02 10:32:00,71.0,58.0,30.20,SSE,163,8.0,0.0,63,0.03,,,-99.99,,2013-05-02 14:32:00,
2013-05-02 10:43:00,71.0,58.0,30.20,SSE,163,8.0,0.0,63,0.03,,,-99.99,,2013-05-02 14:43:00,
2013-05-02 10:52:00,72.0,57.0,30.19,South,173,7.0,0.0,59,0.03,,,-99.99,,2013-05-02 14:52:00,
2013-05-02 11:02:00,74.0,57.0,30.19,South,191,7.0,0.0,55,0.03,,,-99.99,,2013-05-02 15:02:00,
2013-05-02 11:12:00,74.0,57.0,30.19,South,191,7.0,0.0,55,0.03,,,-99.99,,2013-05-02 15:12:00,
2013-05-02 11:22:00,74.0,57.0,30.19,South,191,7.0,0.0,55,0.03,,,-99.99,,2013-05-02 15:22:00,
2013-05-02 11:33:00,75.0,56.0,30.19,SSE,148,6.0,0.0,52,0.03,,,-99.99,,2013-05-02 15:33:00,
2013-05-02 11:43:00,75.0,56.0,30.19,SSE,148,6.0,0.0,52,0.03,,,-99.99,,2013-05-02 15:43:00,
2013-05-02 12:03:00,76.0,57.0,30.18,South,186,7.0,0.0,52,0.03,,,-99.99,,2013-05-02 16:03:00,
2013-05-02 12:13:00,76.0,57.0,30.18,South,186,7.0,0.0,52,0.03,,,-99.99,,2013-05-02 16:13:00,
2013-05-02 12:23:00,77.0,55.0,30.18,South,179,8.0,0.0,47,0.03,,,-99.99,,2013-05-02 16:23:00,
2013-05-02 12:32:00,78.0,56.0,30.17,SSW,197,8.0,0.0,46,0.03,,,-99.99,,2013-05-02 16:32:00,
2013-05-02 12:43:00,78.0,56.0,30.17,SSW,197,8.0,0.0,46,0.03,,,-99.99,,2013-05-02 16:43:00,
2013-05-02 12:52:00,79.0,56.0,30.17,SSW,194,7.0,0.0,46,0.03,,,-99.99,,2013-05-02 16:52:00,
2013-05-02 13:02:00,79.0,56.0,30.16,South,186,8.0,0.0,46,0.03,,,-99.99,,2013-05-02 17:02:00,
2013-05-02 13:12:00,79.0,56.0,30.16,South,186,8.0,0.0,46,0.03,,,-99.99,,2013-05-02 17:12:00,
2013-05-02 13:21:00,80.0,56.0,30.15,SW,233,7.0,0.0,44,0.03,,,-99.99,,2013-05-02 17:21:00,
2013-05-02 13:22:00,79.0,56.0,30.16,South,186,8.0,0.0,46,0.03,,,-99.99,,2013-05-02 17:22:00,
2013-05-02 13:32:00,79.0,56.0,30.16,South,186,8.0,0.0,46,0.03,,,-99.99,,2013-05-02 17:32:00,
2013-05-02 13:42:00,79.0,56.0,30.16,South,186,8.0,0.0,46,0.03,,,-99.99,,2013-05-02 17:42:00,
2013-05-02 13:52:00,80.0,56.0,30.15,SW,233,7.0,0.0,44,0.03,,,-99.99,,2013-05-02 17:52:00,
2013-05-02 14:02:00,80.0,56.0,30.15,SW,233,7.0,0.0,44,0.03,,,-99.99,,2013-05-02 18:02:00,
2013-05-02 14:12:00,80.0,56.0,30.15,SW,233,7.0,0.0,44,0.03,,,-99.99,,2013-05-02 18:12:00,
2013-05-02 15:01:00,81.0,55.0,30.12,South,187,6.0,0.0,41,0.03,,,-99.99,,2013-05-02 19:01:00,
2013-05-02 15:11:00,81.0,55.0,30.12,South,187,6.0,0.0,41,0.03,,,-99.99,,2013-05-02 19:11:00,
2013-05-02 15:22:00,81.0,55.0,30.12,South,187,6.0,0.0,41,0.03,,,-99.99,,2013-05-02 19:22:00,
2013-05-02 15:32:00,81.0,54.0,30.11,ESE,117,8.0,0.0,40,0.03,,,-99.99,,2013-05-02 19:32:00,
2013-05-02 15:42:00,81.0,54.0,30.11,ESE,117,8.0,0.0,40,0.03,,,-99.99,,2013-05-02 19:42:00,
2013-05-02 15:52:00,80.0,54.0,30.11,South,187,9.0,0.0,41,0.03,,,-99.99,,2013-05-02 19:52:00,
2013-05-02 16:02:00,80.0,54.0,30.11,South,187,9.0,0.0,41,0.03,,,-99.99,,2013-05-02 20:02:00,
2013-05-02 16:11:00,80.0,54.0,30.11,South,187,9.0,0.0,41,0.03,,,-99.99,,2013-05-02 20:11:00,
2013-05-02 16:22:00,80.0,54.0,30.11,South,187,9.0,0.0,41,0.03,,,-99.99,,2013-05-02 20:22:00,
2013-05-02 16:32:00,80.0,54.0,30.10,South,180,10.0,0.0,41,0.03,,,-99.99,,2013-05-02 20:32:00,
2013-05-02 16:42:00,80.0,54.0,30.10,South,180,10.0,0.0,41,0.03,,,-99.99,,2013-05-02 20:42:00,
2013-05-02 16:52:00,80.0,55.0,30.09,SSW,194,18.0,0.0,42,0.03,,,-99.99,,2013-05-02 20:52:00,
2013-05-02 17:01:00,75.0,60.0,30.09,SSW,201,4.0,0.0,59,0.03,,,-99.99,,2013-05-02 21:01:00,
2013-05-02 17:02:00,74.0,61.0,30.09,SSW,193,5.0,0.0,63,0.03,,,-99.99,,2013-05-02 21:02:00,
2013-05-02 17:12:00,75.0,60.0,30.09,SSW,201,4.0,0.0,59,0.03,,,-99.99,,2013-05-02 21:12:00,
2013-05-02 17:21:00,74.0,61.0,30.09,SSW,193,5.0,0.0,63,0.03,,,-99.99,,2013-05-02 21:21:00,
2013-05-02 17:33:00,74.0,61.0,30.09,SSW,193,5.0,0.0,63,0.03,,,-99.99,,2013-05-02 21:33:00,
2013-05-02 17:42:00,74.0,61.0,30.09,SSW,193,5.0,0.0,63,0.03,,,-99.99,,2013-05-02 21:42:00,
2013-05-02 17:53:00,74.0,61.0,30.09,SSW,193,5.0,0.0,63,0.03,,,-99.99,,2013-05-02 21:53:00,
2013-05-02 18:33:00,72.0,60.0,30.10,NNW,328,9.0,0.0,65,0.03,,,-99.99,,2013-05-02 22:33:00,
2013-05-02 18:42:00,72.0,60.0,30.10,NNW,328,9.0,0.0,65,0.03,,,-99.99,,2013-05-02 22:42:00,
2013-05-02 18:53:00,71.0,59.0,30.09,WNW,285,6.0,0.0,66,0.03,,,-99.99,,2013-05-02 22:53:00,
2013-05-02 19:02:00,71.0,59.0,30.09,West,266,6.0,0.0,66,0.03,,,-99.99,,2013-05-02 23:02:00,
2013-05-02 19:12:00,71.0,59.0,30.09,West,266,6.0,0.0,66,0.03,,,-99.99,,2013-05-02 23:12:00,
2013-05-02 19:22:00,71.0,58.0,30.09,NNW,333,10.0,0.0,63,0.03,,,-99.99,,2013-05-02 23:22:00,
2013-05-02 19:32:00,69.0,57.0,30.09,NNW,345,13.0,0.0,65,0.03,,,-99.99,,2013-05-02 23:32:00,
2013-05-02 19:42:00,69.0,57.0,30.09,NNW,345,13.0,0.0,65,0.03,,,-99.99,,2013-05-02 23:42:00,
2013-05-02 19:51:00,68.0,57.0,30.09,North,0,13.0,0.0,67,0.03,,,-99.99,,2013-05-02 23:51:00,
2013-05-02 20:01:00,65.0,56.0,30.09,NW,318,8.0,0.0,74,0.03,,,-99.99,,2013-05-03 00:01:00,
2013-05-02 20:11:00,65.0,56.0,30.09,NW,318,8.0,0.0,74,0.03,,,-99.99,,2013-05-03 00:11:00,
2013-05-02 20:22:00,64.0,57.0,30.10,NNW,339,7.0,0.0,77,0.03,,,-99.99,,2013-05-03 00:22:00,
2013-05-02 20:32:00,64.0,57.0,30.10,North,11,7.0,0.0,78,0.03,,,-99.99,,2013-05-03 00:32:00,
2013-05-02 20:42:00,64.0,57.0,30.10,North,11,7.0,0.0,78,0.03,,,-99.99,,2013-05-03 00:42:00,
2013-05-02 20:52:00,62.0,58.0,30.11,NW,319,8.0,0.0,88,0.03,,,-99.99,,2013-05-03 00:52:00,
2013-05-02 21:01:00,62.0,58.0,30.11,NW,319,8.0,0.0,88,0.03,,,-99.99,,2013-05-03 01:01:00,
2013-05-02 21:11:00,62.0,58.0,30.11,NW,319,8.0,0.0,88,0.03,,,-99.99,,2013-05-03 01:11:00,
2013-05-02 21:21:00,60.0,58.0,30.10,North,6,9.0,0.0,92,0.03,,,-99.99,,2013-05-03 01:21:00,
2013-05-02 21:32:00,59.0,57.0,30.11,NNE,15,8.0,0.0,92,0.03,,,-99.99,,2013-05-03 01:32:00,
2013-05-02 21:42:00,59.0,57.0,30.11,NNE,15,8.0,0.0,92,0.03,,,-99.99,,2013-05-03 01:42:00,
2013-05-02 21:52:00,59.0,57.0,30.11,North,1,7.0,0.0,92,0.03,,,-99.99,,2013-05-03 01:52:00,
2013-05-02 22:01:00,58.0,56.0,30.11,NNE,17,7.0,0.0,92,0.03,,,-99.99,,2013-05-03 02:01:00,
2013-05-02 22:11:00,58.0,56.0,30.11,NNE,17,7.0,0.0,92,0.03,,,-99.99,,2013-05-03 02:11:00,
2013-05-02 22:22:00,58.0,56.0,30.12,NNW,339,12.0,0.0,93,0.03,,,-99.99,,2013-05-03 02:22:00,
2013-05-02 22:32:00,57.0,55.0,30.12,NNW,345,8.0,0.0,94,0.03,,,-99.99,,2013-05-03 02:32:00,
2013-05-02 22:42:00,57.0,55.0,30.12,NNW,345,8.0,0.0,94,0.03,,,-99.99,,2013-05-03 02:42:00,
2013-05-02 22:52:00,57.0,55.0,30.12,NNW,345,8.0,0.0,94,0.03,,,-99.99,,2013-05-03 02:52:00,
2013-05-02 23:01:00,55.0,54.0,30.13,North,6,8.0,0.0,95,0.03,,,-99.99,,2013-05-03 03:01:00,
2013-05-02 23:11:00,55.0,54.0,30.13,North,6,8.0,0.0,95,0.03,,,-99.99,,2013-05-03 03:11:00,
2013-05-02 23:21:00,55.0,54.0,30.13,NNE,15,9.0,0.0,96,0.03,,,-99.99,,2013-05-03 03:21:00,
2013-05-02 23:33:00,55.0,54.0,30.13,North,3,8.0,0.0,96,0.03,,,-99.99,,2013-05-03 03:33:00,
2013-05-02 23:43:00,55.0,54.0,30.13,North,3,8.0,0.0,96,0.03,,,-99.99,,2013-05-03 03:43:00,
2013-05-02 23:52:00,54.0,53.0,30.13,North,8,8.0,0.0,97,0.03,,,-99.99,,2013-05-03 03:52:00,